Location: Newark
(0.5300°S, 127.4800°E)
Time: 04:21:22
(UTC+00:00)

Vanguard 2 Rocket - Visible Passes

Search period start: 22 September 2019 00:00
Search period end: 02 October 2019 00:00
Orbit: 554 x 3326 km, 32.9° (Epoch: 21 September)

Date Brightness Start Highest point End Pass type
(mag) Time Alt. Az. Time Alt. Az. Time Alt. Az.
22 Sep 10.2 17:03:38 16° ESE 17:03:38 16° ESE 17:05:44 10° ESE visible
22 Sep 8.8 19:09:27 42° SSW 19:10:05 42° SSW 19:24:23 10° SE visible
23 Sep 9.2 18:13:28 38° SSE 18:13:28 38° SSE 18:22:10 10° SE visible
23 Sep 9.6 20:19:17 13° WSW 20:27:18 25° SSW 20:40:14 10° SSE visible
24 Sep 10.1 17:17:25 18° SE 17:17:25 18° SE 17:20:06 10° SE visible
24 Sep 9.2 19:23:14 27° SW 19:25:20 29° SSW 19:37:44 10° SE visible
25 Sep 9.3 18:27:08 31° S 18:27:08 31° S 18:35:39 10° SE visible
25 Sep 10.0 20:35:08 10° SW 20:43:19 19° S 20:54:02 10° SSE visible
26 Sep 10.0 17:31:01 18° SE 17:31:01 18° SE 17:33:54 10° SE visible
26 Sep 9.6 19:36:49 17° SW 19:40:59 20° SSW 19:51:02 10° SSE visible
27 Sep 9.5 18:40:39 23° S 18:40:39 23° S 18:48:49 10° SSE visible
27 Sep 10.2 20:52:23 10° SSW 20:59:42 15° S 21:08:42 10° SSE visible
28 Sep 10.0 17:44:26 16° SSE 17:44:26 16° SSE 17:47:14 10° SSE visible
28 Sep 9.9 19:51:05 10° SW 19:57:01 15° S 20:04:29 10° SSE visible
29 Sep 9.8 18:54:00 15° SSW 18:55:03 15° S 19:01:41 10° SSE visible
30 Sep 10.0 17:57:45 14° SSE 17:57:45 14° SSE 18:00:02 10° SSE visible
30 Sep 10.2 20:08:41 10° SSW 20:13:20 12° S 20:18:47 10° SSE visible
01 Oct 10.0 19:08:26 10° SSW 19:11:02 11° S 19:13:57 10° SSE visible
